Volver al catálogo

THOR ABLESTAR DEB

ActivoLEO
NORAD 132·DEBRIS·🇺🇸 United States

Lanzado Jun 29, 1961 desde Cape Canaveral Space Force Station

Loading…

Próximos Pases (próximas 24 horas)

TLE

ActualizadoSource: Space-Track

Época: Sep 13, 2026, 23:58 UTC

1 00132U 61015S   26256.99888352 -.00000009  00000-0  51068-4 0  9996
2 00132  66.6586 112.3442 0069303 133.9003 226.7828 13.94783991316056

Sigue THOR ABLESTAR DEB en tiempo real con AllMySat

Download on the App Store